Overview Statistics Trail Chart Weather Telemetry Raw packets
 

This is the latest recevied weather packets stored in our database for station/object 4S6DRJ-13. If no packets are shown the sender has not sent any weather packets the latest 10 day(s).

<< 239 240 241 242 243 244 245 >>
Time Temp. Humidity Pressure Rain* Wind** Luminosity Snow
1788114916 27.78° C 85% 1010.7 hPa 0 mm 0.89 m/s, 257° 0 W/m² -
1788114855 27.78° C 85% 1010.6 hPa 0 mm 0.45 m/s, 255° 0 W/m² -
1788114794 27.78° C 85% 1010.5 hPa 0 mm 0.45 m/s, 146° 0 W/m² -
1788114733 27.78° C 85% 1010.3 hPa 0 mm 0.89 m/s, 215° 0 W/m² -
1788114672 28.33° C 85% 1010.5 hPa 0 mm 1.79 m/s, 256° 0 W/m² -
1788114611 28.33° C 85% 1010.5 hPa 0 mm 0.89 m/s, 211° 0 W/m² -
1788114550 28.33° C 85% 1010.5 hPa 0 mm 1.79 m/s, 226° 0 W/m² -
1788114490 28.33° C 85% 1010.6 hPa 0 mm 0.45 m/s, 187° 0 W/m² -
1788114428 28.33° C 85% 1010.6 hPa 0 mm 0.45 m/s, 224° 0 W/m² -
1788114367 28.33° C 85% 1010.6 hPa 0 mm 0.89 m/s, 216° 0 W/m² -
1788114306 27.78° C 85% 1010.5 hPa 0 mm 1.79 m/s, 198° 0 W/m² -
1788114245 27.78° C 85% 1010.5 hPa 0 mm 0.45 m/s, 189° 0 W/m² -
1788114184 27.78° C 85% 1010.5 hPa 0 mm 0.89 m/s, 195° 0 W/m² -
1788114123 28.33° C 85% 1010.6 hPa 0 mm 1.34 m/s, 242° 0 W/m² -
1788114062 28.33° C 85% 1010.6 hPa 0 mm 0.89 m/s, 183° 0 W/m² -
1788114001 28.33° C 85% 1010.5 hPa 0 mm 0.89 m/s, 253° 0 W/m² -
1788113940 28.33° C 85% 1010.6 hPa 0 mm 0.89 m/s, 200° 0 W/m² -
1788113879 28.33° C 85% 1010.5 hPa 0 mm 0.45 m/s, 258° 0 W/m² -
1788113818 28.33° C 85% 1010.6 hPa 0 mm 0.89 m/s, 210° 0 W/m² -
1788113757 28.33° C 85% 1010.5 hPa 0 mm 0.89 m/s, 219° 0 W/m² -
1788113696 28.33° C 85% 1010.3 hPa 0 mm 1.34 m/s, 276° 0 W/m² -
1788113635 28.33° C 85% 1010.4 hPa 0 mm 0.89 m/s, 277° 0 W/m² -
1788113574 28.33° C 85% 1010.7 hPa 0 mm 1.34 m/s, 280° 0 W/m² -
1788113513 28.33° C 85% 1010.5 hPa 0 mm 1.34 m/s, 52° 0 W/m² -
1788113453 28.33° C 84% 1010.6 hPa 0 mm 0.45 m/s, 174° 0 W/m² -

* Rain latest hour (hover to see other rain measurements)
** Current wind speed in m/s (hover to see current wind gust speed)